Alexander City, AL

5:49 AM CST on February 06, 2016 (GMT -0600)
Russell

Weather History for KALX - August, 2013

Change the Weather History Date:

Tuesday, August 27, 2013

  Actual Average (KAUO) Record (KAUO)
Temperature  
Mean Temperature 76 °F -  
Max Temperature 90 °F - 97 °F (1959)
Min Temperature 61 °F - 58 °F (1958)
Cooling Degree Days 10    
Month to date cooling degree days  
Year to date cooling degree days  
Since 1 June cooling degree days  
Growing Degree Days 26 (Base 50)    
Moisture  
Dew Point 64 °F    
Average Humidity 70    
Maximum Humidity 89    
Minimum Humidity 40    
Precipitation  
Precipitation 0.00 in - 2.42 in (2007)
Month to date precipitation  
Year to date precipitation  
Sea Level Pressure  
Sea Level Pressure 30.13 in    
Wind  
Wind Speed 1 mph (NE)    
Max Wind Speed 6 mph    
Max Gust Speed -    
Visibility 10 miles    
Events      
T = Trace of Precipitation, MM = Missing Value Source: NWS Daily Summary

Daily Weather History Graph

Daily Weather History Graph

Search for Another Location

Airport or City:

Trip Planner

Search our weather history database for the weather conditions in past years. The results will help you decide how hot, cold, wet, or windy it might be!

Date:

Astronomy

Aug. 27, 2013 Rise Set
Actual Time 6:15 AM CDT 7:14 PM CDT
Civil Twilight 5:49 AM CDT 7:40 PM CDT
Nautical Twilight 5:19 AM CDT 8:10 PM CDT
Astronomical Twilight 4:48 AM CDT 8:41 PM CDT
Moon 11:31 PM CDT (8/27) 12:49 PM CDT (8/27)
Length of Visible Light 13h 50m
Length of Day
12h 59m
Waning Gibbous, 57% of the Moon is Illuminated
Aug 27
Waning Gibbous
Aug 28
Last Quarter
Sep 5
New
Sep 12
First Quarter
Sep 19
Full

Hourly Weather History & Observations

Time (CDT) Temp. Heat Index Dew Point Humidity Pressure Visibility Wind Dir Wind Speed Gust Speed Precip Events Conditions
12:15 AM 65.5 °F - 62.2 °F 89% 30.19 in 10.0 mi Calm Calm - N/A   Clear
12:35 AM 66.0 °F - 62.8 °F 89% 30.19 in 10.0 mi Calm Calm - N/A   Clear
12:55 AM 68.0 °F - 64.4 °F 88% 30.18 in 10.0 mi Calm Calm - N/A   Clear
1:15 AM 65.5 °F - 61.9 °F 88% 30.18 in 10.0 mi Calm Calm - N/A   Clear
1:35 AM 68.0 °F - 64.6 °F 89% 30.18 in 10.0 mi Calm Calm - N/A   Clear
1:55 AM 63.5 °F - 59.9 °F 88% 30.17 in 10.0 mi Calm Calm - N/A   Clear
2:15 AM 64.8 °F - 61.0 °F 88% 30.17 in 10.0 mi Calm Calm - N/A   Clear
2:35 AM 65.5 °F - 61.9 °F 88% 30.17 in 10.0 mi Calm Calm - N/A   Clear
2:55 AM 63.0 °F - 59.4 °F 88% 30.16 in 7.0 mi Calm Calm - N/A   Clear
3:15 AM 63.0 °F - 59.4 °F 88% 30.16 in 10.0 mi Calm Calm - N/A   Clear
3:35 AM 65.5 °F - 62.1 °F 89% 30.16 in 10.0 mi Calm Calm - N/A   Clear
3:55 AM 65.5 °F - 62.2 °F 89% 30.15 in 10.0 mi Calm Calm - N/A   Clear
4:15 AM 65.5 °F - 61.9 °F 88% 30.15 in 10.0 mi Calm Calm - N/A   Clear
4:35 AM 65.5 °F - 62.1 °F 89% 30.14 in 10.0 mi Calm Calm - N/A   Clear
4:55 AM 62.8 °F - 59.2 °F 88% 30.15 in 10.0 mi Calm Calm - N/A   Clear
5:15 AM 64.4 °F - 61.0 °F 89% 30.16 in 10.0 mi Calm Calm - N/A   Clear
5:35 AM 65.5 °F - 62.1 °F 89% 30.16 in 10.0 mi Calm Calm - N/A   Clear
5:55 AM 61.7 °F - 58.1 °F 88% 30.16 in 10.0 mi Calm Calm - N/A   Clear
6:15 AM 62.8 °F - 59.5 °F 89% 30.16 in 7.0 mi Calm Calm - N/A   Clear
6:35 AM 62.8 °F - 59.2 °F 88% 30.16 in 10.0 mi Calm Calm - N/A   Clear
6:55 AM 65.5 °F - 61.7 °F 88% 30.17 in 10.0 mi North 3.5 mph - N/A   Clear
7:15 AM 68.0 °F - 63.7 °F 86% 30.17 in 10.0 mi Calm Calm - N/A   Clear
7:35 AM 70.7 °F - 65.1 °F 82% 30.17 in 10.0 mi Calm Calm - N/A   Clear
7:55 AM 70.7 °F - 63.9 °F 79% 30.17 in 10.0 mi Calm Calm - N/A   Clear
8:15 AM 71.1 °F - 63.1 °F 76% 30.17 in 10.0 mi Calm Calm - N/A   Clear
8:35 AM 71.8 °F - 63.3 °F 75% 30.17 in 10.0 mi North 5.8 mph - N/A   Clear
8:55 AM 74.8 °F - 65.7 °F 73% 30.16 in 10.0 mi Calm Calm - N/A   Clear
9:15 AM 75.6 °F - 63.7 °F 66% 30.17 in 10.0 mi Calm Calm - N/A   Clear
9:35 AM 78.3 °F - 64.2 °F 62% 30.17 in 10.0 mi NW 3.5 mph - N/A   Clear
9:55 AM 80.4 °F 82.0 °F 64.0 °F 57% 30.17 in 10.0 mi Calm Calm - N/A   Clear
10:15 AM 80.6 °F 81.8 °F 62.6 °F 54% 30.17 in 10.0 mi North 3.5 mph - N/A   Clear
10:35 AM 80.6 °F 81.8 °F 62.4 °F 54% 30.17 in 10.0 mi NNE 3.5 mph - N/A   Clear
10:55 AM 81.9 °F 83.4 °F 64.0 °F 55% 30.17 in 10.0 mi NNW 5.8 mph - N/A   Clear
11:15 AM 82.8 °F 83.8 °F 63.0 °F 51% 30.17 in 10.0 mi NNE 4.6 mph - N/A   Clear
11:35 AM 83.3 °F 84.3 °F 62.8 °F 50% 30.17 in 10.0 mi ENE 3.5 mph - N/A   Clear
11:55 AM 83.5 °F 84.5 °F 63.3 °F 50% 30.16 in 10.0 mi Calm Calm - N/A   Clear
12:15 PM 83.3 °F 84.4 °F 63.3 °F 51% 30.15 in 10.0 mi SSW 3.5 mph - N/A   Scattered Clouds
12:35 PM 85.6 °F 86.1 °F 62.2 °F 45% 30.15 in 10.0 mi East 5.8 mph - N/A   Clear
12:55 PM 84.6 °F 84.8 °F 61.3 °F 45% 30.14 in 10.0 mi Calm Calm - N/A   Scattered Clouds
1:15 PM 86.4 °F 86.5 °F 61.2 °F 43% 30.13 in 10.0 mi Calm Calm - N/A   Scattered Clouds
1:35 PM 88.2 °F 89.3 °F 63.9 °F 44% 30.13 in 10.0 mi East 4.6 mph - N/A   Scattered Clouds
1:55 PM 88.3 °F 89.2 °F 63.1 °F 43% 30.12 in 10.0 mi East 3.5 mph - N/A   Scattered Clouds
2:15 PM 84.4 °F 84.8 °F 61.3 °F 46% 30.12 in 10.0 mi Calm Calm - N/A   Scattered Clouds
2:35 PM 88.3 °F 88.9 °F 62.4 °F 42% 30.11 in 10.0 mi ESE 3.5 mph - N/A   Scattered Clouds
2:55 PM 85.8 °F 85.9 °F 61.0 °F 43% 30.10 in 10.0 mi Calm Calm - N/A   Scattered Clouds
3:15 PM 90.7 °F 91.7 °F 63.5 °F 40% 30.10 in 10.0 mi NE 4.6 mph - N/A   Scattered Clouds
3:35 PM 84.4 °F 84.8 °F 61.3 °F 46% 30.10 in 10.0 mi Calm Calm - N/A   Scattered Clouds
3:55 PM 90.7 °F 92.1 °F 64.0 °F 41% 30.09 in 10.0 mi ESE 3.5 mph - N/A   Clear
4:15 PM 90.5 °F 92.2 °F 64.8 °F 42% 30.08 in 10.0 mi Calm Calm - N/A   Clear
4:35 PM 90.5 °F 91.8 °F 63.9 °F 41% 30.09 in 10.0 mi Calm Calm - N/A   Clear
4:55 PM 89.1 °F 90.0 °F 63.0 °F 42% 30.09 in 10.0 mi Calm Calm - N/A   Clear
5:15 PM 90.7 °F 92.1 °F 64.2 °F 41% 30.08 in 10.0 mi South 4.6 mph - N/A   Scattered Clouds
5:35 PM 87.6 °F 88.5 °F 63.3 °F 44% 30.09 in 10.0 mi SW 3.5 mph - N/A   Scattered Clouds
5:55 PM 86.5 °F 87.3 °F 63.0 °F 45% 30.09 in 10.0 mi Calm Calm - N/A   Clear
6:15 PM 84.6 °F 85.9 °F 63.9 °F 50% 30.08 in 10.0 mi SW 3.5 mph - N/A   Clear
6:35 PM 83.3 °F 86.6 °F 68.7 °F 61% 30.08 in 10.0 mi Calm Calm - N/A   Clear
6:55 PM 81.0 °F 83.9 °F 68.5 °F 66% 30.08 in 10.0 mi Calm Calm - N/A   Clear
7:15 PM 78.4 °F - 71.1 °F 78% 30.09 in 10.0 mi Calm Calm - N/A   Clear
7:35 PM 78.1 °F - 71.6 °F 80% 30.09 in 10.0 mi Calm Calm - N/A   Clear
7:55 PM 75.6 °F - 69.8 °F 82% 30.09 in 10.0 mi Calm Calm - N/A   Clear
8:15 PM 75.6 °F - 70.7 °F 85% 30.09 in 10.0 mi Calm Calm - N/A   Clear
8:35 PM 75.6 °F - 70.7 °F 85% 30.09 in 10.0 mi Calm Calm - N/A   Clear
8:55 PM 75.6 °F - 71.1 °F 86% 30.09 in 10.0 mi Calm Calm - N/A   Clear
9:15 PM 75.6 °F - 71.1 °F 86% 30.09 in 10.0 mi Calm Calm - N/A   Clear
9:35 PM 73.2 °F - 69.3 °F 87% 30.11 in 10.0 mi Calm Calm - N/A   Clear
9:55 PM 73.0 °F - 69.1 °F 87% 30.11 in 10.0 mi Calm Calm - N/A   Clear
10:15 PM 71.8 °F - 67.6 °F 87% 30.11 in 10.0 mi Calm Calm - N/A   Clear
10:35 PM 71.8 °F - 68.0 °F 88% 30.11 in 10.0 mi Calm Calm - N/A   Clear
10:55 PM 73.0 °F - 69.1 °F 87% 30.10 in 10.0 mi Calm Calm - N/A   Clear
11:15 PM 70.7 °F - 66.7 °F 87% 30.10 in 10.0 mi Calm Calm - N/A   Clear
11:35 PM 70.7 °F - 67.1 °F 88% 30.09 in 10.0 mi Calm Calm - N/A   Clear
11:55 PM 70.7 °F - 66.7 °F 87% 30.09 in 10.0 mi Calm Calm - N/A   Clear